This is the latest recevied weather packets stored in our database for station/object SP1BMW-13. If no packets are shown the sender has not sent any weather packets the latest 10 day(s).
| Time | Temp. | Humidity | Pressure | Rain* | Wind** | Luminosity | Snow |
|---|---|---|---|---|---|---|---|
| 1787410382 | 20.56° C | 53% | 1011.1 hPa | 0 mm | 1.79 m/s, 229° | 259 W/m² | - |
| 1787410322 | 20.56° C | 53% | 1010.9 hPa | 0 mm | 2.24 m/s, 298° | 224 W/m² | - |
| 1787410263 | 20.56° C | 53% | 1010.9 hPa | 0 mm | 0.89 m/s, 303° | 229 W/m² | - |
| 1787410202 | 20.56° C | 54% | 1010.9 hPa | 0 mm | 2.24 m/s, 337° | 222 W/m² | - |
| 1787410143 | 20.56° C | 53% | 1011 hPa | 0 mm | 1.79 m/s, 237° | 202 W/m² | - |
| 1787410082 | 20.56° C | 53% | 1011 hPa | 0 mm | 0.89 m/s, 6° | 207 W/m² | - |
| 1787410022 | 20.56° C | 54% | 1011 hPa | 0 mm | 0.45 m/s, 117° | 213 W/m² | - |
| 1787409962 | 20.56° C | 53% | 1011 hPa | 0 mm | 0.89 m/s, 251° | 222 W/m² | - |
| 1787409902 | 20.56° C | 53% | 1011 hPa | 0 mm | 0.89 m/s, 275° | 213 W/m² | - |
| 1787409843 | 20.56° C | 52% | 1011 hPa | 0 mm | 1.34 m/s, 214° | 216 W/m² | - |
| 1787409782 | 20.56° C | 52% | 1011 hPa | 0 mm | 1.79 m/s, 235° | 234 W/m² | - |
| 1787409722 | 21.11° C | 52% | 1010.9 hPa | 0 mm | 2.68 m/s, 261° | 238 W/m² | - |
| 1787409662 | 21.11° C | 52% | 1011 hPa | 0 mm | 1.79 m/s, 265° | 391 W/m² | - |
| 1787409602 | 21.11° C | 51% | 1011 hPa | 0 mm | 2.24 m/s, 238° | 246 W/m² | - |
| 1787409542 | 21.11° C | 52% | 1011 hPa | 0 mm | 1.79 m/s, 122° | 254 W/m² | - |
| 1787409482 | 21.11° C | 52% | 1010.9 hPa | 0 mm | 2.24 m/s, 280° | 403 W/m² | - |
| 1787409422 | 21.11° C | 51% | 1010.9 hPa | 0 mm | 2.68 m/s, 21° | 258 W/m² | - |
| 1787409362 | 21.11° C | 52% | 1011 hPa | 0 mm | 0.45 m/s, 239° | 336 W/m² | - |
| 1787409302 | 21.11° C | 51% | 1010.9 hPa | 0 mm | 2.24 m/s, 211° | 340 W/m² | - |
| 1787409242 | 21.11° C | 50% | 1011 hPa | 0 mm | 2.24 m/s, 15° | 425 W/m² | - |
| 1787409183 | 21.67° C | 50% | 1010.9 hPa | 0 mm | 1.34 m/s, 291° | 320 W/m² | - |
| 1787409122 | 21.67° C | 51% | 1010.8 hPa | 0 mm | 1.34 m/s, 180° | 256 W/m² | - |
| 1787409062 | 21.67° C | 50% | 1011 hPa | 0 mm | 1.34 m/s, 279° | 240 W/m² | - |
| 1787409002 | 21.67° C | 50% | 1011.1 hPa | 0 mm | 2.24 m/s, 24° | 245 W/m² | - |
| 1787408942 | 21.11° C | 51% | 1010.9 hPa | 0 mm | 0.89 m/s, 278° | 305 W/m² | - |
* Rain latest hour (hover to see other rain measurements)
** Current wind speed in m/s (hover to see current wind gust speed)